London, KY

4:02 PM EST on December 02, 2016 (GMT -0500)
London-Corbin / McKee

Weather History for KLOZ - March, 2013

Change the Weather History Date:

Wednesday, March 13, 2013

  Actual Average Record
Temperature  
Mean Temperature 32 °F 46 °F  
Max Temperature 37 °F 58 °F 84 °F (1967)
Min Temperature 27 °F 35 °F -3 °F (1960)
Degree Days  
Heating Degree Days 33 19  
Month to date heating degree days 356 263  
Since 1 July heating degree days 3704 3539  
Cooling Degree Days 0 0  
Month to date cooling degree days 0 0  
Year to date cooling degree days 0 0  
Moisture  
Dew Point 21 °F    
Average Humidity 63    
Maximum Humidity 82    
Minimum Humidity 43    
Precipitation  
Precipitation T in 0.13 in 1.18 in (1975)
Month to date precipitation 2.37 1.70  
Year to date precipitation 9.16 8.95  
Sea Level Pressure  
Sea Level Pressure 30.20 in    
Wind  
Wind Speed 11 mph (WNW)    
Max Wind Speed 22 mph    
Max Gust Speed 30 mph    
Visibility 10 miles    
Events Snow    
T = Trace of Precipitation, MM = Missing Value Source: NWS Daily Summary

Daily Weather History Graph

Daily Weather History Graph

Search for Another Location

Airport or City:

Trip Planner

Search our weather history database for the weather conditions in past years. The results will help you decide how hot, cold, wet, or windy it might be!

Date:

Astronomy

Mar. 13, 2013 Rise Set
Actual Time 7:49 AM EDT 7:42 PM EDT
Civil Twilight 7:23 AM EDT 8:07 PM EDT
Nautical Twilight 6:53 AM EDT 8:38 PM EDT
Astronomical Twilight 6:23 AM EDT 9:08 PM EDT
Moon 8:32 AM EDT (3/13) 9:53 PM EDT (3/13)
Length of Visible Light 12h 43m
Length of Day
11h 52m
Waxing Crescent, 4% of the Moon is Illuminated
Mar 13
Waxing Crescent
Mar 19
First Quarter
Mar 27
Full
Apr 3
Last Quarter
Apr 10
New

Hourly Weather History & Observations

Time (EDT) Temp. Windchill Dew Point Humidity Pressure Visibility Wind Dir Wind Speed Gust Speed Precip Events Conditions
12:53 AM 35.1 °F - 27.0 °F 72% 30.11 in 10.0 mi Calm Calm - N/A   Clear
1:53 AM 32.0 °F - 27.0 °F 82% 30.11 in 10.0 mi Calm Calm - N/A   Mostly Cloudy
3:53 AM 34.0 °F 29.8 °F 26.1 °F 73% 30.08 in 10.0 mi WNW 4.6 mph - N/A   Overcast
4:53 AM 35.1 °F 29.3 °F 27.0 °F 72% 30.08 in 10.0 mi West 6.9 mph - 0.00 in   Overcast
5:53 AM 35.1 °F 31.0 °F 28.0 °F 76% 30.07 in 10.0 mi WSW 4.6 mph - 0.00 in   Overcast
6:53 AM 35.1 °F 32.2 °F 28.0 °F 76% 30.08 in 10.0 mi WSW 3.5 mph - N/A   Overcast
7:53 AM 34.0 °F 23.8 °F 28.0 °F 79% 30.10 in 10.0 mi West 16.1 mph 19.6 mph 0.00 in   Mostly Cloudy
8:31 AM 33.8 °F 25.8 °F 26.6 °F 75% 30.10 in 10.0 mi West 10.4 mph - N/A   Overcast
8:50 AM 33.8 °F 23.9 °F 24.8 °F 70% 30.11 in 10.0 mi West 15.0 mph - N/A   Mostly Cloudy
8:53 AM 34.0 °F 23.8 °F 24.1 °F 67% 30.13 in 10.0 mi West 16.1 mph - N/A   Mostly Cloudy
9:53 AM 33.1 °F 22.2 °F 23.0 °F 66% 30.16 in 6.0 mi WNW 17.3 mph 25.3 mph 0.00 in Snow Light Snow
10:53 AM 32.0 °F 21.2 °F 21.9 °F 66% 30.19 in 10.0 mi West 16.1 mph 25.3 mph 0.00 in   Overcast
11:53 AM 35.1 °F 24.8 °F 17.1 °F 48% 30.20 in 10.0 mi West 17.3 mph 23.0 mph N/A   Mostly Cloudy
12:53 PM 36.0 °F 25.3 °F 18.0 °F 48% 30.21 in 10.0 mi West 19.6 mph 29.9 mph N/A   Overcast
1:53 PM 35.1 °F 25.2 °F 16.0 °F 46% 30.22 in 10.0 mi WNW 16.1 mph 28.8 mph N/A   Overcast
2:53 PM 35.1 °F 25.2 °F 17.1 °F 48% 30.23 in 10.0 mi WNW 16.1 mph 23.0 mph N/A   Overcast
3:53 PM 35.1 °F 25.2 °F 17.1 °F 48% 30.24 in 10.0 mi West 16.1 mph 25.3 mph N/A   Overcast
4:53 PM 35.1 °F 26.9 °F 16.0 °F 46% 30.25 in 10.0 mi West 11.5 mph 19.6 mph N/A   Overcast
5:53 PM 33.1 °F 24.9 °F 16.0 °F 50% 30.27 in 10.0 mi NW 10.4 mph 19.6 mph N/A   Overcast
6:53 PM 33.1 °F 24.9 °F 14.0 °F 46% 30.29 in 10.0 mi NW 10.4 mph - N/A   Overcast
7:53 PM 32.0 °F 24.8 °F 15.1 °F 50% 30.31 in 10.0 mi NW 8.1 mph - N/A   Overcast
8:53 PM 30.9 °F 22.8 °F 16.0 °F 54% 30.32 in 10.0 mi WNW 9.2 mph - N/A   Overcast
9:53 PM 30.0 °F 21.1 °F 16.0 °F 56% 30.33 in 10.0 mi NW 10.4 mph 17.3 mph N/A   Overcast
10:53 PM 28.0 °F 17.5 °F 19.9 °F 72% 30.36 in 6.0 mi NW 12.7 mph 21.9 mph 0.00 in Snow Light Snow
11:53 PM 27.0 °F 21.6 °F 18.0 °F 69% 30.36 in 10.0 mi WNW 4.6 mph - 0.00 in   Scattered Clouds